Wind_Speed
18 19 19 19 20 20 20 20 20 20 21 21 21 22 23 23 24 25 25 25 26 26 27 28 29 29 30 31 32 33 33 34 35 35 36 36 36 37
19 20 20 20 21 21 21 22 22 23 23 23 23 23 24 25 26 26 27 27 28 28 29 30 31 32 33 33 34 34 35 36 37 38 39 40 40 41
20 21 21 22 22 22 22 22 23 23 24 24 25 25 25 26 28 29 29 29 30 31 32 33 33 34 35 35 36 37 37 39 40 41 42 42 43 44
20 21 22 22 23 23 23 24 25 25 25 26 26 26 27 28 29 30 30 31 32 33 34 35 36 38 38 38 39 40 41 42 43 43 44 45 46 47
20 21 22 23 23 23 24 24 25 26 26 27 27 28 28 29 29 30 31 32 33 35 36 37 39 40 41 42 43 43 43 44 45 46 47 48 49 49
20 21 22 23 23 24 25 25 26 26 27 27 27 28 28 29 30 32 33 35 36 37 38 39 40 41 42 43 44 45 45 46 47 48 49 50 51 52
22 22 23 24 24 25 25 26 27 27 27 27 27 28 29 31 33 34 35 37 38 39 40 41 41 42 44 45 45 46 47 48 49 50 51 52 53 54
22 23 23 24 25 25 26 27 27 28 27 28 30 31 32 32 33 35 36 37 38 39 40 41 42 43 44 45 46 46 47 48 49 50 52 53 54 55
23 24 24 24 25 26 26 28 28 28 29 30 31 32 33 34 34 35 36 37 38 40 41 42 43 44 44 45 45 45 47 48 49 50 51 52 53 54
23 24 24 25 25 26 27 28 28 28 29 30 31 33 33 34 34 35 36 37 38 39 40 41 42 42 43 44 45 46 47 47 48 49 50 50 51 52
23 24 25 25 25 26 26 27 28 29 30 31 32 33 33 33 33 34 35 36 37 38 39 40 41 42 43 44 45 46 47 47 47 47 48 49 49 49
24 25 26 26 27 26 27 28 28 29 30 31 32 32 32 32 33 34 35 36 38 38 39 40 41 42 43 44 45 46 45 45 45 46 46 47 47 47
25 25 26 26 27 27 28 28 28 29 30 31 32 32 32 33 34 35 36 37 38 39 40 40 41 41 42 43 43 43 43 43 44 44 44 45 45 45
26 26 26 27 27 27 28 29 29 30 30 31 32 32 33 34 34 35 36 37 38 38 39 39 39 39 40 39 40 40 41 42 42 43 43 43 43 43
27 27 27 27 27 27 28 28 29 29 30 31 32 33 33 34 35 36 36 37 37 38 38 38 37 38 38 39 39 38 39 40 41 41 41 41 41 41
26 26 26 26 27 28 28 28 29 30 31 32 33 33 34 35 35 36 36 36 36 37 36 36 36 36 36 37 37 37 37 38 39 39 39 39 39 39
25 26 27 27 27 28 29 29 30 31 32 32 33 34 35 35 35 35 35 36 35 35 35 34 34 34 34 35 35 36 36 37 37 37 37 37 38 38
26 26 27 27 28 29 30 31 32 32 32 33 33 34 34 34 34 35 34 34 33 33 32 32 32 33 33 34 34 34 35 35 36 36 36 36 36 36
27 27 28 29 29 30 30 31 32 32 32 32 33 33 33 33 32 32 32 32 31 31 31 31 31 32 32 33 33 34 34 34 34 34 35 35 34 34
27 28 28 29 29 30 30 30 31 32 32 32 32 32 31 31 31 31 31 30 30 30 30 30 31 31 31 32 32 33 33 33 33 33 33 33 33 32
27 28 29 29 29 30 30 31 31 31 31 31 31 30 30 30 30 30 30 29 29 29 29 30 30 31 31 31 31 32 32 33 33 33 32 31 30 30
29 29 29 30 30 30 30 30 30 30 31 30 30 30 30 30 29 29 28 28 28 29 29 29 29 30 30 30 30 30 31 31 32 33 33 32 31 30
29 29 29 29 29 30 30 30 30 30 30 30 29 29 29 29 29 28 28 28 28 28 28 28 28 28 28 29 29 30 30 30 30 31 32 32 32 32
Wind_Direction
262 263 265 267 267 266 267 267 270 271 272 273 275 275 275 276 278 279 279 279 280 281 281 281 281 281 281 281 282 281 280 280 279 279 279 279 279 279
261 262 265 268 268 268 266 267 271 273 273 273 274 275 276 278 279 279 279 279 280 281 281 282 282 281 281 282 283 283 281 281 281 280 280 279 278 278
265 265 265 267 268 270 270 271 272 274 274 273 272 272 275 278 279 280 281 280 281 282 281 282 283 283 282 282 284 283 283 283 282 281 281 281 280 280
268 268 266 266 266 267 269 271 273 275 275 273 273 274 276 278 280 281 282 282 282 282 281 281 283 284 284 284 284 284 283 282 282 281 281 282 281 281
272 272 271 270 269 268 270 272 275 276 276 275 275 276 279 280 281 282 282 283 284 284 283 283 284 285 286 286 284 285 286 285 284 283 283 282 282 281
276 276 274 273 271 270 272 274 276 277 277 277 279 279 282 284 283 284 284 285 286 287 286 286 287 288 287 288 287 286 286 286 286 285 284 284 283 283
278 278 277 275 274 274 275 275 275 275 276 277 280 283 284 285 284 285 285 286 286 287 287 288 288 289 289 289 289 288 288 288 288 288 287 286 285 284
280 281 280 278 277 276 277 276 277 277 278 280 283 284 286 287 287 287 288 288 288 288 288 289 291 293 293 292 292 291 290 289 289 289 289 288 288 287
281 282 281 280 278 277 278 281 281 281 281 283 285 286 287 288 287 288 289 289 290 290 290 291 293 295 294 293 293 293 293 293 293 293 293 293 292 291
282 282 283 283 282 281 279 279 279 280 283 285 288 289 289 289 288 288 289 290 291 292 293 294 294 295 296 296 296 297 297 296 296 296 296 296 295 295
283 283 284 284 283 284 284 283 284 283 285 287 289 290 292 291 290 291 292 292 293 294 295 297 297 297 298 299 299 299 299 299 299 299 299 299 299 298
284 286 288 286 285 285 285 285 285 286 288 290 291 293 294 293 292 293 295 295 296 297 298 299 298 299 299 300 301 301 302 302 303 303 303 302 301 301
286 288 290 287 286 287 287 287 288 290 291 292 293 294 295 295 295 296 296 297 298 299 300 301 301 302 302 302 303 304 304 305 306 305 305 304 304 303
286 288 289 289 289 289 288 289 290 290 292 293 294 295 296 297 298 299 300 300 301 302 303 303 303 304 304 305 306 306 307 307 307 307 307 307 307 306
287 288 289 290 290 288 288 290 291 292 294 296 296 297 298 299 301 302 302 303 303 303 304 304 304 305 306 307 308 308 308 309 310 309 309 309 309 309
289 289 289 290 289 290 291 292 294 295 296 297 297 298 300 301 302 303 304 304 304 304 304 305 306 307 308 309 310 311 311 311 312 312 312 312 312 311
290 291 292 293 293 293 293 293 295 297 298 299 299 301 301 302 303 304 304 304 306 306 307 307 308 309 311 312 313 314 315 315 315 315 315 315 315 315
291 292 292 293 293 294 295 295 297 298 299 300 301 301 301 303 304 305 305 306 307 307 308 309 310 311 313 314 315 316 317 318 318 317 317 318 318 318
291 292 292 294 295 296 296 297 298 299 300 301 301 302 303 304 306 307 308 308 308 308 309 310 311 313 315 316 316 317 319 320 320 321 321 321 321 321
291 293 294 296 297 297 298 299 299 299 300 302 304 304 305 306 307 308 307 307 308 309 310 312 314 315 316 317 318 319 320 322 323 324 324 325 325 325
292 294 295 295 296 298 299 300 300 301 302 304 304 305 305 306 306 307 307 308 309 311 313 314 315 317 318 320 321 323 324 324 325 326 327 327 327 327
292 293 294 294 296 298 299 301 301 302 302 303 303 304 305 305 306 307 308 309 311 312 313 315 317 319 320 322 324 325 326 327 328 328 329 329 330 330
290 292 294 296 297 298 299 300 300 300 301 302 304 305 306 306 307 308 309 310 311 312 314 316 318 320 322 324 325 327 328 329 330 331 331 331 332 332
Height
5875 5875 5875 5875 5875 5875 5875 5874 5875 5874 5874 5873 5872 5872 5871 5870 5869 5869 5867 5867 5866 5864 5863 5862 5860 5859 5857 5856 5855 5853 5852 5850 5849 5847 5846 5845 5843 5842
5870 5870 5870 5870 5870 5870 5870 5869 5869 5869 5868 5868 5867 5866 5865 5864 5863 5862 5861 5860 5859 5858 5856 5854 5853 5851 5850 5848 5847 5845 5843 5841 5840 5838 5836 5835 5833 5832
5865 5865 5865 5865 5865 5865 5864 5864 5864 5863 5863 5862 5861 5860 5859 5858 5857 5856 5854 5853 5852 5850 5849 5847 5845 5843 5842 5840 5838 5836 5834 5832 5830 5828 5826 5824 5822 5820
5860 5860 5860 5859 5859 5859 5859 5858 5858 5857 5857 5856 5855 5854 5853 5852 5850 5849 5847 5846 5844 5842 5840 5839 5837 5835 5832 5830 5828 5826 5823 5821 5819 5817 5814 5812 5810 5807
5855 5854 5854 5853 5853 5853 5853 5852 5852 5851 5850 5849 5848 5847 5846 5845 5843 5842 5840 5838 5836 5834 5832 5829 5827 5825 5823 5820 5817 5815 5812 5809 5807 5804 5801 5799 5796 5794
5850 5849 5848 5848 5847 5847 5847 5846 5846 5845 5844 5843 5841 5840 5839 5837 5836 5834 5832 5829 5827 5825 5822 5820 5817 5814 5812 5809 5806 5803 5800 5797 5794 5791 5788 5785 5782 5779
5844 5843 5843 5842 5842 5841 5841 5840 5839 5838 5837 5835 5834 5833 5831 5830 5828 5825 5823 5821 5818 5815 5812 5810 5807 5804 5801 5797 5794 5791 5788 5784 5781 5777 5774 5770 5767 5764
5838 5838 5837 5836 5835 5835 5834 5833 5832 5831 5829 5828 5827 5825 5823 5821 5819 5816 5814 5812 5808 5805 5802 5799 5796 5792 5789 5785 5781 5778 5774 5771 5767 5763 5759 5755 5751 5747
5833 5832 5831 5830 5829 5828 5827 5826 5824 5823 5822 5821 5819 5817 5815 5812 5810 5807 5805 5802 5798 5795 5792 5789 5785 5781 5777 5773 5770 5765 5762 5757 5753 5749 5745 5740 5736 5731
5827 5826 5824 5823 5822 5821 5820 5818 5817 5816 5814 5813 5811 5809 5806 5804 5801 5798 5795 5792 5789 5786 5782 5779 5775 5770 5766 5762 5758 5753 5749 5745 5740 5735 5731 5726 5721 5716
5821 5820 5818 5816 5815 5814 5813 5812 5810 5809 5807 5805 5803 5801 5798 5795 5792 5790 5786 5783 5780 5776 5772 5769 5764 5760 5755 5751 5746 5742 5737 5732 5727 5722 5717 5712 5707 5702
5815 5813 5812 5810 5809 5807 5806 5804 5803 5801 5799 5797 5794 5792 5789 5786 5783 5781 5777 5774 5770 5766 5762 5758 5754 5749 5745 5740 5735 5730 5725 5720 5714 5709 5704 5699 5693 5688
5809 5807 5805 5803 5801 5800 5799 5797 5795 5794 5791 5789 5786 5784 5781 5778 5775 5772 5768 5765 5761 5756 5752 5748 5743 5739 5734 5729 5724 5719 5713 5708 5703 5697 5692 5686 5680 5675
5802 5800 5799 5797 5795 5793 5791 5790 5788 5786 5784 5781 5778 5776 5773 5769 5766 5762 5759 5755 5751 5747 5742 5738 5733 5729 5724 5719 5714 5708 5703 5697 5692 5687 5681 5675 5669 5663
5795 5794 5792 5790 5788 5786 5784 5782 5780 5778 5776 5773 5770 5767 5764 5760 5757 5753 5749 5745 5741 5737 5732 5728 5724 5719 5714 5709 5704 5699 5694 5688 5682 5676 5670 5664 5658 5653
5789 5786 5785 5783 5781 5779 5777 5775 5773 5770 5768 5765 5762 5758 5755 5751 5748 5744 5740 5736 5731 5727 5723 5719 5714 5710 5705 5700 5695 5689 5684 5679 5673 5667 5661 5654 5648 5642
5782 5780 5778 5776 5774 5772 5770 5767 5765 5762 5759 5756 5753 5749 5746 5742 5738 5735 5731 5726 5722 5718 5714 5710 5705 5701 5696 5691 5686 5681 5675 5670 5664 5658 5652 5646 5639 5633
5775 5773 5771 5769 5767 5765 5762 5759 5757 5754 5751 5747 5744 5741 5737 5733 5730 5726 5722 5718 5714 5710 5706 5702 5697 5693 5688 5683 5679 5673 5668 5662 5656 5650 5644 5638 5632 5625
5768 5766 5764 5762 5759 5757 5754 5751 5749 5745 5742 5739 5736 5732 5728 5725 5721 5717 5714 5710 5706 5702 5698 5694 5690 5686 5681 5676 5671 5665 5660 5654 5649 5642 5636 5630 5624 5618
5761 5759 5756 5754 5752 5749 5746 5743 5740 5737 5734 5731 5727 5724 5720 5717 5713 5710 5706 5702 5698 5695 5691 5687 5683 5678 5674 5669 5664 5658 5653 5647 5642 5636 5630 5624 5617 5611
5753 5751 5749 5747 5744 5741 5738 5735 5732 5729 5726 5723 5720 5716 5713 5709 5706 5702 5699 5695 5691 5688 5684 5680 5675 5671 5666 5662 5657 5651 5645 5640 5634 5629 5623 5618 5612 5606
5746 5744 5741 5739 5736 5733 5730 5727 5724 5721 5718 5715 5712 5708 5705 5702 5698 5695 5691 5688 5684 5681 5677 5673 5669 5664 5660 5655 5650 5645 5640 5634 5628 5622 5616 5611 5605 5600
5738 5735 5733 5730 5728 5725 5722 5719 5716 5713 5710 5707 5704 5701 5698 5694 5691 5688 5684 5681 5677 5674 5670 5666 5662 5658 5653 5649 5644 5639 5634 5629 5623 5617 5611 5605 5599 5593